Regional Weather Roundup
Issued by NWS

Home | Current Version | Previous Version | Text Only | Print | Product List | Glossary Off
Versions: 1 2 3 4 5 6 7 8 9 10 11 12 13 14 15 16 17 18 19 20 21 22 23 24 25 26 27 28 29 30 31 32 33 34 35 36 37 38 39 40 41 42 43 44 45 46 47 48 49 50

000
ASUS43 KIND 171509
RWRIN

WEATHER ROUNDUP FOR INDIANA
NATIONAL WEATHER SERVICE INDIANAPOLIS IN
1000 AM EST WED DEC 17 2014

NOTE: "FAIR" INDICATES FEW OR NO CLOUDS BELOW 12,000 FEET WITH NO
SIGNIFICANT WEATHER AND/OR OBSTRUCTIONS TO VISIBILITY.

* - STATION DOES NOT REPORT WEATHER SUCH AS PRECIPITATION OR FOG.

+ - STATION NOT QUALITY CONTROLLED BY THE NATIONAL WEATHER SERVICE.
    USE DATA WITH CAUTION...ESPECIALLY DEWPOINT AND RELATIVE
    HUMIDITY OBSERVATIONS.

INZ001>003-010>013-019-020-171600-
NORTHWEST INDIANA

CITY           SKY/WX    TMP DP  RH WIND       PRES   REMARKS
GARY /AIRPORT/ CLOUDY    27  19  74 W13       30.24R WCI  16
KNOX *+        CLOUDY    26  22  83 W10       30.22R WCI  17
LA PORTE +     CLOUDY    28  24  83 W8G16     30.21S WCI  20
MICHIGAN CITY+ CLOUDY    28  19  69 NW10      30.22S WCI  19
MONTICELLO +   CLOUDY    25  22  87 W12       30.24S WCI  15
RENSSELAER +   CLOUDY    27  27 100 W12       30.25R FOG     WCI  16
VALPARAISO     CLOUDY    25  19  78 NW9       30.23R WCI  15

$$

LMZ046-743>745-171600-
SOUTHERN LAKE MICHIGAN

STATION/POSITION TIME  TEMP WIND        PRES
                       AIR  DIR/SP/G
                 (UTC) (F)  (DEG/KT/KT) (MB)

$$

INZ004-005-014>016-021>024-171600-
NORTH CENTRAL INDIANA

CITY           SKY/WX    TMP DP  RH WIND       PRES   REMARKS
ELKHART        CLOUDY    28  23  80 W14       30.19R WCI  17
GOSHEN         CLOUDY    28  22  78 NW13      30.18R WCI  17
LOGANSPORT +   CLOUDY    27  23  86 W13       30.25R WCI  16
PERU/GRISSOM   CLOUDY    26  26 100 W17       30.22R WCI  13
ROCHESTER +    CLOUDY    30  27  86 W10       30.23R WCI  21
SOUTH BEND     CLOUDY    29  22  75 NW14      30.20R WCI  18
WARSAW +       CLOUDY    28  23  80 W13       30.20R WCI  18

$$

INZ006>009-017-018-025>027-171600-
NORTHEAST INDIANA

CITY           SKY/WX    TMP DP  RH WIND       PRES   REMARKS
ANGOLA *+      CLOUDY    28  23  80 NW14      30.14R WCI  17
AUBURN +       CLOUDY    30  23  74 W15G22    30.17S WCI  19
FORT WAYNE     FLURRIES  29  24  82 W18       30.19R WCI  16
HUNTINGTON +   CLOUDY    27  23  85 W13G21    30.21R WCI  16

$$

INZ028-029-035-036-043>045-051>053-171600-
WEST CENTRAL INDIANA

CITY           SKY/WX    TMP DP  RH WIND       PRES   REMARKS
GREENCASTLE +  CLOUDY    27  21  80 W6        30.29R FOG     WCI  20
LAFAYETTE      CLOUDY    23  19  85 W15       30.28R WCI  10
TERRE HAUTE    CLOUDY    25  20  81 W10       30.32R WCI  15

$$

INZ030>032-037>040-046>048-054>057-064-065-171600-
CENTRAL INDIANA

CITY           SKY/WX    TMP DP  RH WIND       PRES   REMARKS
ANDERSON       CLOUDY    27  25  93 W17G23    30.25F WCI  14
CP ATTERBURY + CLOUDY    28  25  86 MISG      30.30R
COLUMBUS       CLOUDY    28  27  93 NW8       30.30R WCI  20
FRANKFORT +    CLOUDY    25  25 100 SW14      30.27R WCI  13
INDIANAPOLIS   CLOUDY    25  21  85 W15       30.27R WCI  13
-EAGLE CREEK   CLOUDY    25  22  88 W10       30.27R WCI  15
KOKOMO *+      CLOUDY    27  19  74 NW18      30.23R WCI  13
MARION +       CLOUDY    26  25  94 W15G21    30.23R WCI  14
MT COMFORT *+  CLOUDY    27  25  93 W13       30.26R WCI  16
SHELBYVILLE    CLOUDY    29  23  78 W12       30.26R WCI  19
ZIONSVILLE +   CLOUDY    25  21  86 W10       30.26S WCI  15

$$

INZ033-034-041-042-049-050-058-059-171600-
EAST CENTRAL INDIANA

CITY           SKY/WX    TMP DP  RH WIND       PRES   REMARKS
MUNCIE         CLOUDY    27  23  85 W14       30.22R WCI  16

$$

INZ060-061-067>069-081>083-085>088-171600-
SOUTHWEST INDIANA

CITY           SKY/WX    TMP DP  RH WIND       PRES   REMARKS
EVANSVILLE     CLOUDY    32  24  72 NW7       30.34S WCI  26
HUNTINGBURG *+ CLOUDY    30  23  74 NW8       30.33S WCI  23
WASHINGTON +   CLOUDY    29  26  88 N8        30.32F WCI  21

$$

INZ062-063-066-070>080-084-089>092-171600-
SOUTH CENTRAL AND SOUTHEAST INDIANA

CITY           SKY/WX    TMP DP  RH WIND       PRES   REMARKS
BLOOMINGTON    CLOUDY    26  23  88 NW6       30.29R WCI  19
SEYMOUR +      CLOUDY    30  25  80 W9        30.31R WCI  22

$$




USA.gov is the U.S. government's official web portal to all federal, state and local government web resources and services.